Location: Kawakawa
(35.3830°S, 174.0670°E)
Time: 12:07:05
(UTC+13:00)

Cosmos 2181 Rocket - Pass Details

Date: 24 January 2019
Orbit: 952 x 1015 km, 82.9° (Epoch: 16 February)

Event Time Altitude Azimuth Distance (km) Brightness Sun altitude
Rises 23:31:27 0° 181° (S) 3,673 7.9 -28.0°
Reaches altitude 10° 23:34:02 10° 176° (S) 2,727 7.0 -28.2°
Enters shadow 23:39:47 53° 111° (ESE) 1,194 4.3 -28.9°
